Location: Sungai Ketit
(2.6833°N, 113.2333°E)
Time: 20:45:29
(UTC+00:00)

DELTA 2 R/B (1) - Pass Details

Date: 23 May 2024
Orbit: 788 x 801 km, 39.6° (Epoch: 19 June)

Event Time Altitude Azimuth Distance (km) Brightness Sun altitude
Rises 11:38:57 0° 222° (SW) 3,298 7.0 -16.5°
Reaches altitude 10° 11:41:28 10° 219° (SW) 2,367 6.2 -17.1°
Maximum altitude 11:47:00 63° 138° (SE) 883 3.5 -18.3°
Enters shadow 11:51:00 19° 61° (ENE) 1,821 5.1 -19.3°
